Find O3b FM18

NORAD ID: 44115 Int'l Des: 2019-020 Owner: O3BS Country: UK operational
MEOCIRCULAR

リアルタイム位置

3D地球を読み込み中...

O3b FM18について

説明を読み込み中...

次回通過

Passes for default location (London). Set your location on the main map for personalized predictions.

高度履歴

Loading altitude history...

軌道要素

1 44115U 19020D 26106.69918612 -.00000013 00000-0 00000+0 0 9998
2 44115 0.0535 1.4236 0002740 24.6550 333.9370 5.00115270128573
Epoch: Apr 16, 2026 • Age: 23 hours

現在のステータス

高度 8065.9 km
速度 5.25 km/s
衛星直下点 -0.05°S, 165.85°W
打ち上げ日 Apr 4, 2019
運用期間 7 years
タイプ other

技術仕様

分類 Payload
質量 700.00 kg
乾燥質量 500.00 kg
総質量 700.00 kg
長さ 4.00 m
直径 2.00 m
スパン 12.00 m
形状 Box trap+2 pan
製造者 THALR
バスタイプ Prisma
フェーズステータス Renamed
所有者/国 O3BS/UK

Most Searched